• In United Kingdom
  • List of Countries
  • For 7 days
  • Water Temperature
  • Satellite Maps
  • Weather Map
  • Weather Widgets
  • user-avatar
    Login

    Hourly Weather Chorazycha

    Today, 20 September, Thursday

    Time Temperature Precipitation Wind Pressure Humidity
    00:00 +18°C° 0 mm 2 mps 750 mmHg 79%
    01:00 +17°C° 0 mm 2 mps 750 mmHg 80%
    02:00 +17°C° 0 mm 2 mps 750 mmHg 80%
    03:00 +17°C° 0 mm 2 mps 750 mmHg 81%
    04:00 +17°C° 0 mm 2 mps 750 mmHg 82%
    05:00 +16°C° 0 mm 2 mps 750 mmHg 83%
    06:00 +17°C° 0 mm 2 mps 750 mmHg 81%
    07:00 +18°C° 0 mm 2 mps 750 mmHg 79%
    08:00 +19°C° 0 mm 2 mps 751 mmHg 76%
    09:00 +21°C° 0 mm 2 mps 751 mmHg 69%
    10:00 +24°C° 0 mm 2 mps 751 mmHg 62%
    11:00 +26°C° 0 mm 2 mps 751 mmHg 55%
    12:00 +27°C° 0 mm 3 mps 751 mmHg 52%
    13:00 +28°C° 0 mm 3 mps 750 mmHg 49%
    14:00 +29°C° 0 mm 3 mps 750 mmHg 46%
    15:00 +29°C° 0 mm 2 mps 750 mmHg 48%
    16:00 +28°C° 0 mm 2 mps 750 mmHg 51%
    17:00 +28°C° 0 mm 2 mps 750 mmHg 53%
    18:00 +26°C° 0 mm 2 mps 750 mmHg 58%
    19:00 +24°C° 0 mm 2 mps 750 mmHg 62%
    20:00 +21°C° 0 mm 2 mps 750 mmHg 66%
    21:00 +21°C° 0 mm 2 mps 750 mmHg 68%
    22:00 +20°C° 0 mm 2 mps 750 mmHg 70%
    23:00 +20°C° 0 mm 2 mps 750 mmHg 72%

    Tomorrow, 21 September, Friday

    Time Temperature Precipitation Wind Pressure Humidity
    00:00 +19°C° 0 mm 2 mps 750 mmHg 73%
    01:00 +19°C° 0 mm 2 mps 750 mmHg 74%
    02:00 +18°C° 0 mm 2 mps 749 mmHg 76%
    03:00 +18°C° 0 mm 2 mps 749 mmHg 76%
    04:00 +18°C° 0 mm 2 mps 749 mmHg 77%
    05:00 +17°C° 0 mm 2 mps 749 mmHg 78%
    06:00 +18°C° 0 mm 3 mps 749 mmHg 76%
    07:00 +19°C° 0 mm 3 mps 749 mmHg 73%
    08:00 +19°C° 0 mm 3 mps 749 mmHg 70%
    09:00 +21°C° 0 mm 4 mps 749 mmHg 64%
    10:00 +23°C° 0 mm 4 mps 749 mmHg 58%
    11:00 +26°C° 0 mm 4 mps 749 mmHg 52%
    12:00 +26°C° 0 mm 5 mps 748 mmHg 49%
    13:00 +27°C° 0 mm 5 mps 748 mmHg 46%
    14:00 +28°C° 0 mm 6 mps 747 mmHg 43%
    15:00 +27°C° 0 mm 5 mps 746 mmHg 45%
    16:00 +26°C° 0 mm 5 mps 746 mmHg 47%
    17:00 +25°C° 0 mm 4 mps 745 mmHg 50%
    18:00 +23°C° 0 mm 4 mps 745 mmHg 54%
    19:00 +22°C° 0 mm 5 mps 744 mmHg 58%
    20:00 +21°C° 0 mm 5 mps 744 mmHg 62%
    21:00 +21°C° 0 mm 5 mps 744 mmHg 62%
    22:00 +21°C° 0 mm 6 mps 743 mmHg 61%
    23:00 +21°C° 0 mm 6 mps 743 mmHg 61%

    Day after tomorrow, 22 September, Saturday

    Time Temperature Precipitation Wind Pressure Humidity
    00:00 +21°C° 0 mm 6 mps 743 mmHg 62%
    01:00 +20°C° 0 mm 6 mps 743 mmHg 63%
    02:00 +20°C° 0 mm 6 mps 743 mmHg 63%
    03:00 +17°C° 0.2 mm 6 mps 744 mmHg 69%
    04:00 +15°C° 0.2 mm 5 mps 744 mmHg 75%
    05:00 +14°C° 0.2 mm 5 mps 745 mmHg 80%
    06:00 +13°C° 0.2 mm 5 mps 746 mmHg 79%
    07:00 +13°C° 0.2 mm 5 mps 746 mmHg 78%
    08:00 +12°C° 0.2 mm 5 mps 747 mmHg 77%
    09:00 +13°C° 0 mm 5 mps 747 mmHg 71%
    10:00 +13°C° 0 mm 5 mps 747 mmHg 66%
    11:00 +13°C° 0 mm 5 mps 748 mmHg 60%
    12:00 +13°C° 0 mm 5 mps 748 mmHg 58%
    13:00 +14°C° 0 mm 6 mps 748 mmHg 56%
    14:00 +14°C° 0 mm 6 mps 748 mmHg 54%
    15:00 +14°C° 0 mm 5 mps 748 mmHg 54%
    16:00 +14°C° 0 mm 5 mps 748 mmHg 55%
    17:00 +14°C° 0 mm 5 mps 748 mmHg 56%
    18:00 +13°C° 0 mm 4 mps 748 mmHg 61%
    19:00 +12°C° 0 mm 3 mps 748 mmHg 67%
    20:00 +10°C° 0 mm 3 mps 748 mmHg 73%
    21:00 +10°C° 0 mm 3 mps 748 mmHg 74%
    22:00 +9°C° 0 mm 3 mps 748 mmHg 75%
    23:00 +9°C° 0 mm 3 mps 748 mmHg 76%

    23 September, Sunday

    Time Temperature Precipitation Wind Pressure Humidity
    00:00 +9°C° 0 mm 3 mps 748 mmHg 75%
    01:00 +8°C° 0 mm 4 mps 748 mmHg 74%
    02:00 +8°C° 0 mm 4 mps 748 mmHg 74%
    03:00 +7°C° 0 mm 4 mps 748 mmHg 76%
    04:00 +7°C° 0 mm 4 mps 748 mmHg 78%
    05:00 +7°C° 0 mm 4 mps 748 mmHg 81%
    06:00 +7°C° 0 mm 4 mps 748 mmHg 78%
    07:00 +8°C° 0 mm 5 mps 748 mmHg 75%
    08:00 +9°C° 0 mm 5 mps 748 mmHg 73%
    09:00 +10°C° 0 mm 6 mps 748 mmHg 67%
    10:00 +13°C° 0 mm 6 mps 748 mmHg 60%
    11:00 +14°C° 0 mm 6 mps 748 mmHg 54%
    12:00 +15°C° 0 mm 6 mps 747 mmHg 50%
    13:00 +15°C° 0 mm 6 mps 747 mmHg 47%
    14:00 +16°C° 0 mm 6 mps 746 mmHg 44%
    15:00 +16°C° 0 mm 5 mps 746 mmHg 46%
    16:00 +15°C° 0 mm 4 mps 745 mmHg 47%
    17:00 +16°C° 0 mm 3 mps 745 mmHg 49%
    18:00 +13°C° 0.2 mm 3 mps 744 mmHg 58%
    19:00 +12°C° 0.2 mm 3 mps 744 mmHg 66%
    20:00 +11°C° 0.2 mm 3 mps 743 mmHg 74%
    21:00 +11°C° 0.8 mm 3 mps 742 mmHg 79%
    22:00 +10°C° 0.8 mm 4 mps 741 mmHg 84%
    23:00 +9°C° 0.8 mm 5 mps 739 mmHg 89%

    24 September, Monday

    Time Temperature Precipitation Wind Pressure Humidity
    00:00 +10°C° 1.8 mm 6 mps 737 mmHg 90%
    01:00 +10°C° 1.8 mm 7 mps 735 mmHg 91%
    02:00 +10°C° 1.8 mm 8 mps 733 mmHg 92%
    03:00 +12°C° 1.3 mm 8 mps 731 mmHg 91%
    04:00 +13°C° 1.3 mm 9 mps 729 mmHg 90%
    05:00 +15°C° 1.3 mm 9 mps 728 mmHg 89%
    06:00 +15°C° 0.6 mm 9 mps 727 mmHg 87%
    07:00 +13°C° 0.6 mm 10 mps 726 mmHg 85%
    08:00 +13°C° 0.6 mm 10 mps 726 mmHg 82%
    09:00 +11°C° 0.2 mm 11 mps 727 mmHg 82%
    10:00 +8°C° 0.2 mm 13 mps 728 mmHg 82%
    11:00 +5°C° 0.2 mm 14 mps 729 mmHg 82%
    12:00 +7°C° 0.3 mm 13 mps 732 mmHg 79%
    13:00 +7°C° 0.3 mm 12 mps 734 mmHg 76%
    14:00 +8°C° 0.3 mm 11 mps 736 mmHg 72%
    15:00 +8°C° 0.1 mm 11 mps 738 mmHg 70%
    16:00 +9°C° 0.1 mm 10 mps 740 mmHg 68%
    17:00 +10°C° 0.1 mm 9 mps 742 mmHg 66%
    18:00 +9°C° 0 mm 8 mps 744 mmHg 67%
    19:00 +7°C° 0 mm 8 mps 745 mmHg 69%
    20:00 +6°C° 0 mm 8 mps 746 mmHg 71%
    21:00 +5°C° 0 mm 7 mps 746 mmHg 71%
    22:00 +5°C° 0 mm 7 mps 747 mmHg 70%
    23:00 +5°C° 0 mm 6 mps 748 mmHg 70%

    25 September, Tuesday

    Time Temperature Precipitation Wind Pressure Humidity
    00:00 +4°C° 0 mm 6 mps 748 mmHg 71%
    01:00 +4°C° 0 mm 6 mps 748 mmHg 72%
    02:00 +4°C° 0 mm 6 mps 749 mmHg 72%
    03:00 +5°C° 0 mm 5 mps 749 mmHg 73%
    04:00 +5°C° 0 mm 5 mps 750 mmHg 74%
    05:00 +3°C° 0 mm 5 mps 750 mmHg 74%
    06:00 +5°C° 0 mm 5 mps 750 mmHg 73%
    07:00 +5°C° 0 mm 5 mps 751 mmHg 72%
    08:00 +5°C° 0 mm 6 mps 751 mmHg 71%
    09:00 +7°C° 0.1 mm 6 mps 751 mmHg 65%
    10:00 +9°C° 0.1 mm 6 mps 751 mmHg 59%
    11:00 +10°C° 0.1 mm 6 mps 752 mmHg 53%
    12:00 +10°C° 0 mm 5 mps 752 mmHg 51%
    13:00 +12°C° 0 mm 5 mps 751 mmHg 48%
    14:00 +12°C° 0 mm 5 mps 751 mmHg 46%
    15:00 +12°C° 0.1 mm 4 mps 751 mmHg 53%
    16:00 +11°C° 0.1 mm 3 mps 751 mmHg 60%
    17:00 +10°C° 0.1 mm 3 mps 751 mmHg 67%
    18:00 +9°C° 0.2 mm 2 mps 752 mmHg 73%
    19:00 +9°C° 0.2 mm 2 mps 752 mmHg 79%
    20:00 +8°C° 0.2 mm 2 mps 752 mmHg 86%
    21:00 +8°C° 0.1 mm 2 mps 753 mmHg 88%
    22:00 +8°C° 0.1 mm 2 mps 753 mmHg 90%
    23:00 +7°C° 0.1 mm 2 mps 753 mmHg 92%
    Show more